Location: Colonia Mina de C?rbuni
(46.1667°N, 22.7167°E)
Time: 06:52:00
(UTC+00:00)

Tiros 1 - Pass Details

Date: 28 April 2024
Orbit: 624 x 657 km, 48.4° (Epoch: 26 May)

Event Time Altitude Azimuth Distance (km) Brightness Sun altitude
Rises 19:15:53 0° 226° (SW) 2,950 10.6 -15.7°
Reaches altitude 10° 19:18:18 10° 220° (SW) 2,038 9.7 -16.0°
Maximum altitude 19:22:45 44° 148° (SSE) 893 7.4 -16.6°
Enters shadow 19:25:37 20° 86° (E) 1,480 8.6 -17.0°
